User: anonymous   Login
Location: Eastlake (historical)
(39.0077°N, 122.6678°W)
Time: 16:43:09
(UTC+00:00)
Language:

Lacrosse 4 Rocket - Orbit

View from above orbital plane
View from above orbital plane
View from above satellite
View from above satellite

Ground track
Ground track

The orbit data is extracted from the following two-line orbital elements,

1 26474U 00047B   21059.51809953  .00000218  00000-0  29614-4 0  9998
2 26474  67.9927  90.7942 0061140 275.4425  83.9745 14.96092077117625
Epoch (UTC): 28 February 2021 12:26:03
Eccentricity: 0.0061140
inclination: 67.9927°
perigee height: 536 km
apogee height: 621 km
right ascension of ascending node: 90.7942°
argument of perigee: 275.4425°
revolutions per day: 14.96092077
mean anomaly at epoch: 83.9745°
orbit number at epoch: 11762

The dashed part of the orbit path shows where the satellite is in the earth's shadow,  

DLR